Weather History for Ardmore, OK

Change the Weather History Date:

Saturday, May 10, 2014

  Actual Average Record
Temperature  
Mean Temperature 72 °F -  
Max Temperature 87 °F 78 °F 89 °F (2005)
Min Temperature 57 °F 59 °F 46 °F (1997)
Cooling Degree Days 7    
Growing Degree Days 22 (Base 50)    
Moisture  
Dew Point 63 °F    
Average Humidity 85    
Maximum Humidity 100    
Minimum Humidity 46    
Precipitation  
Precipitation 0.00 in - - ()
Sea Level Pressure  
Sea Level Pressure 29.83 in    
Wind  
Wind Speed 3 mph (SSE)    
Max Wind Speed 18 mph    
Max Gust Speed 26 mph    
Visibility 9 miles    
Events      
Averages and records for this station are not official NWS values.
T = Trace of Precipitation, MM = Missing Value Source: NWS Daily Summary

Daily Weather History Graph

Daily Weather History Graph

Search for Another Location

Airport:

Trip Planner

Search our weather history database for the weather conditions in past years. The results will help you decide how hot, cold, wet, or windy it might be!

Date:

Astronomy

May. 10, 2014 Rise Set
Actual Time 6:29 AM CDT 8:19 PM CDT
Civil Twilight 6:02 AM CDT 8:46 PM CDT
Nautical Twilight 5:29 AM CDT 9:20 PM CDT
Astronomical Twilight 4:54 AM CDT 9:55 PM CDT
Moon 4:26 PM CDT (5/10) 3:52 AM CDT (5/10)
Length of Visible Light 14h 44m
Length of Day
13h 49m
Waxing Gibbous, 82% of the Moon is Illuminated
May 10
Waxing Gibbous
May 14
Full
May 21
Last Quarter
May 28
New
Jun 5
First Quarter

Hourly Weather History & Observations

Time (CDT) Temp. Heat Index Dew Point Humidity Pressure Visibility Wind Dir Wind Speed Gust Speed Precip Events Conditions
12:15 AM 60.1 °F - 57.7 °F 92% 29.86 in 10.0 mi Calm Calm - N/A   Clear
12:35 AM 60.1 °F - 59.0 °F 96% 29.86 in 10.0 mi Calm Calm - N/A   Clear
12:55 AM 59.5 °F - 59.2 °F 99% 29.86 in 10.0 mi Calm Calm - N/A   Clear
1:15 AM 58.6 °F - 57.2 °F 95% 29.85 in 10.0 mi Calm Calm - N/A   Clear
1:35 AM 59.9 °F - 57.9 °F 93% 29.85 in 10.0 mi Calm Calm - N/A   Clear
1:55 AM 58.6 °F - 56.1 °F 91% 29.84 in 10.0 mi Calm Calm - N/A   Clear
2:15 AM 59.4 °F - 57.7 °F 94% 29.83 in 10.0 mi Calm Calm - N/A   Clear
2:35 AM 58.3 °F - 57.2 °F 96% 29.83 in 10.0 mi Calm Calm - N/A   Clear
2:55 AM 58.1 °F - 57.9 °F 99% 29.82 in 10.0 mi Calm Calm - N/A   Clear
3:15 AM 57.7 °F - 57.4 °F 99% 29.82 in 10.0 mi Calm Calm - N/A   Clear
3:35 AM 62.1 °F - 61.7 °F 99% 29.82 in 10.0 mi SSE 4.6 mph - N/A   Clear
3:55 AM 63.1 °F - 61.7 °F 95% 29.81 in 10.0 mi ESE 6.9 mph - N/A   Clear
4:15 AM 63.0 °F - 61.7 °F 96% 29.81 in 10.0 mi Calm Calm - N/A   Clear
4:35 AM 61.0 °F - 60.8 °F 99% 29.82 in 7.0 mi Calm Calm - N/A   Clear
4:55 AM 61.7 °F - 61.7 °F 100% 29.82 in 4.0 mi Calm Calm - N/A   Clear
5:15 AM 62.2 °F - 62.2 °F 100% 29.83 in 2.5 mi Calm Calm - N/A   Clear
5:35 AM 61.0 °F - 61.0 °F 100% 29.83 in 1.0 mi Calm Calm - N/A   Mist
5:55 AM 61.3 °F - 61.3 °F 100% 29.84 in 2.5 mi Calm Calm - N/A   Clear
6:15 AM 61.7 °F - 61.7 °F 100% 29.85 in 4.0 mi SE 3.5 mph - N/A   Clear
6:35 AM 62.6 °F - 62.6 °F 100% 29.86 in 3.0 mi SE 4.6 mph - N/A   Clear
6:55 AM 62.6 °F - 62.6 °F 100% 29.87 in 10.0 mi SE 4.6 mph - N/A   Clear
7:55 AM 66.2 °F - 62.6 °F 88% 29.88 in 10.0 mi SSE 6.9 mph - N/A   Clear
8:55 AM 69.8 °F - 64.4 °F 83% 29.89 in 10.0 mi South 10.4 mph - N/A   Clear
9:55 AM 73.4 °F - 64.4 °F 73% 29.89 in 10.0 mi South 10.4 mph - N/A   Clear
10:55 AM 77.0 °F - 64.4 °F 65% 29.88 in 10.0 mi South 12.7 mph 21.9 mph N/A   Clear
11:55 AM 80.6 °F 82.3 °F 64.4 °F 58% 29.87 in 10.0 mi South 12.7 mph 19.6 mph N/A   Clear
12:55 PM 82.4 °F 83.9 °F 64.4 °F 54% 29.84 in 10.0 mi South 12.7 mph 19.6 mph N/A   Clear
1:55 PM 84.2 °F 85.6 °F 64.4 °F 51% 29.81 in 10.0 mi South 11.5 mph 18.4 mph N/A   Clear
2:55 PM 86.0 °F 87.3 °F 64.4 °F 48% 29.79 in 10.0 mi SSE 13.8 mph 20.7 mph N/A   Clear
3:55 PM 86.0 °F 88.2 °F 66.2 °F 51% 29.77 in 10.0 mi SE 12.7 mph 18.4 mph N/A   Clear
4:55 PM 87.8 °F 89.4 °F 64.4 °F 46% 29.75 in 10.0 mi SSE 18.4 mph 26.5 mph N/A   Clear
10:15 PM 75.2 °F - 69.1 °F 81% 29.77 in 10.0 mi SE 10.4 mph - N/A   Clear
10:35 PM 74.8 °F - 68.9 °F 82% 29.77 in 10.0 mi SE 10.4 mph - N/A   Clear
10:55 PM 74.5 °F - 68.9 °F 83% 29.77 in 10.0 mi SE 11.5 mph 16.1 mph N/A   Clear
11:15 PM 74.1 °F - 68.9 °F 84% 29.77 in 10.0 mi SE 10.4 mph - N/A   Clear
11:35 PM 73.6 °F - 68.5 °F 84% 29.77 in 10.0 mi SE 9.2 mph - N/A   Clear
11:55 PM 73.4 °F - 68.5 °F 85% 29.77 in 10.0 mi SE 10.4 mph - N/A   Clear